Guymon, OK

8:12 PM CDT on September 24, 2016 (GMT -0500)
Guymon Municipal

Weather History for KGUY - July, 2014

Change the Weather History Date:

Sunday, July 20, 2014

  Actual Average Record
Temperature  
Mean Temperature 85 °F 80 °F  
Max Temperature 101 °F 95 °F 108 °F (2011)
Min Temperature 69 °F 66 °F 63 °F (1999)
Degree Days  
Heating Degree Days 0 0  
Month to date heating degree days 4 0  
Since 1 June heating degree days 9 8  
Since 1 July heating degree days 4 0  
Cooling Degree Days 20 15  
Month to date cooling degree days 266 290  
Year to date cooling degree days 793 678  
Since 1 June cooling degree days 615 570  
Growing Degree Days 34 (Base 50)    
Moisture  
Dew Point 64 °F    
Average Humidity 58    
Maximum Humidity 90    
Minimum Humidity 26    
Precipitation  
Precipitation 0.00 in 0.08 in 0.09 in (2015)
Month to date precipitation 0.94 1.71  
Year to date precipitation 6.67 10.90  
Snow  
Snow 0.00 in - - ()
Month to date snowfall 0.0  
Since 1 June snowfall 0.0  
Since 1 July snowfall 0.0  
Snow Depth 0.00 in    
Sea Level Pressure  
Sea Level Pressure 29.78 in    
Wind  
Wind Speed 13 mph (South)    
Max Wind Speed 24 mph    
Max Gust Speed 32 mph    
Visibility 10 miles    
Events      
T = Trace of Precipitation, MM = Missing Value Source: NWS Daily Summary

Daily Weather History Graph

Daily Weather History Graph

Search for Another Location

Airport or City:

Trip Planner

Search our weather history database for the weather conditions in past years. The results will help you decide how hot, cold, wet, or windy it might be!

Date:

Astronomy

Jul. 20, 2014 Rise Set
Actual Time 6:42 AM CDT 9:01 PM CDT
Civil Twilight 6:13 AM CDT 9:31 PM CDT
Nautical Twilight 5:36 AM CDT 10:07 PM CDT
Astronomical Twilight 4:57 AM CDT 10:46 PM CDT
Moon 1:52 AM CDT (7/20) 3:49 PM CDT (7/20)
Length of Visible Light 15h 18m
Length of Day
14h 19m
Waning Crescent, 33% of the Moon is Illuminated
Jul 20
Waning Crescent
Jul 26
New
Aug 3
First Quarter
Aug 10
Full
Aug 17
Last Quarter

Hourly Weather History & Observations

Time (CDT) Temp. Heat Index Dew Point Humidity Pressure Visibility Wind Dir Wind Speed Gust Speed Precip Events Conditions
12:53 AM 78.1 °F - 68.0 °F 71% 29.77 in 10.0 mi SSW 24.2 mph 33.4 mph N/A   Clear
1:53 AM 77.0 °F - 68.0 °F 74% 29.77 in 10.0 mi South 13.8 mph - N/A   Clear
2:53 AM 75.0 °F - 68.0 °F 79% 29.78 in 10.0 mi South 13.8 mph - N/A   Clear
3:53 AM 73.9 °F - 66.9 °F 79% 29.78 in 10.0 mi South 15.0 mph - N/A   Clear
4:53 AM 72.0 °F - 66.9 °F 84% 29.78 in 10.0 mi South 12.7 mph - N/A   Clear
5:53 AM 71.1 °F - 66.9 °F 87% 29.78 in 10.0 mi South 12.7 mph - N/A   Clear
6:53 AM 69.1 °F - 66.0 °F 90% 29.81 in 10.0 mi SSW 9.2 mph - N/A   Clear
7:53 AM 71.1 °F - 66.9 °F 87% 29.81 in 10.0 mi SSW 10.4 mph - N/A   Clear
8:53 AM 75.9 °F - 66.9 °F 74% 29.81 in 10.0 mi SSW 13.8 mph - N/A   Clear
9:53 AM 82.0 °F 84.1 °F 66.0 °F 58% 29.81 in 10.0 mi SSW 15.0 mph - N/A   Clear
10:53 AM 87.1 °F 88.9 °F 64.9 °F 48% 29.79 in 10.0 mi SSW 13.8 mph - N/A   Clear
11:53 AM 91.9 °F 92.9 °F 63.0 °F 38% 29.78 in 10.0 mi South 12.7 mph - N/A   Clear
12:53 PM 95.0 °F 97.0 °F 64.0 °F 36% 29.77 in 10.0 mi South 12.7 mph - N/A   Clear
1:53 PM 96.1 °F 96.4 °F 61.0 °F 31% 29.76 in 10.0 mi South 13.8 mph - N/A   Clear
2:53 PM 99.0 °F 98.1 °F 57.9 °F 25% 29.75 in 10.0 mi South 13.8 mph 23.0 mph N/A   Clear
3:53 PM 99.0 °F 99.5 °F 60.1 °F 28% 29.74 in 10.0 mi South 12.7 mph 23.0 mph N/A   Clear
4:53 PM 99.0 °F 98.1 °F 57.9 °F 25% 29.73 in 10.0 mi South 15.0 mph - N/A   Clear
5:53 PM 98.1 °F 97.7 °F 59.0 °F 27% 29.73 in 10.0 mi South 16.1 mph - N/A   Clear
6:53 PM 97.0 °F 96.5 °F 59.0 °F 28% 29.74 in 10.0 mi South 16.1 mph 24.2 mph N/A   Clear
7:53 PM 93.9 °F 93.6 °F 60.1 °F 32% 29.75 in 10.0 mi South 15.0 mph - N/A   Clear
8:53 PM 89.1 °F 88.8 °F 60.1 °F 38% 29.78 in 10.0 mi South 9.2 mph - N/A   Clear
9:53 PM 84.9 °F 85.9 °F 63.0 °F 48% 29.80 in 10.0 mi South 10.4 mph - N/A   Clear
10:53 PM 82.9 °F 85.4 °F 66.9 °F 58% 29.82 in 10.0 mi South 10.4 mph - N/A   Clear
11:53 PM 82.0 °F 84.5 °F 66.9 °F 60% 29.83 in 10.0 mi South 15.0 mph - N/A   Clear